Wind_Speed
25 25 25 24 25 25 26 27 28 28 29 30 30 31 31 31 31 32 32 31 30 31 32 33 33 33 33 34 35 35 35 35 35 35 35 35 35 35 36 37 38 38 38
24 24 25 25 25 26 27 28 29 29 29 31 31 32 32 32 32 32 32 32 31 31 32 33 33 34 33 33 34 35 36 36 36 36 36 36 36 37 37 38 38 38 38
24 24 25 25 26 27 28 29 30 31 31 32 33 34 33 33 33 34 34 34 34 33 33 33 34 34 34 35 34 34 35 35 36 37 37 37 37 37 38 38 38 38 39
24 25 25 26 27 28 29 30 31 32 33 33 33 34 34 34 35 35 35 35 35 34 33 34 35 34 34 35 35 35 35 36 37 38 39 39 38 38 38 38 39 40 40
25 26 27 28 29 29 30 31 32 33 34 34 34 34 35 36 36 35 35 36 36 36 35 35 35 35 36 37 37 36 36 37 37 38 38 39 39 39 39 39 40 40 40
27 27 28 29 30 31 31 32 33 34 34 35 35 35 36 36 36 36 36 36 37 37 37 36 36 36 37 37 37 37 37 38 38 39 39 39 39 39 39 39 39 39 40
27 28 29 30 31 31 32 32 33 34 35 35 36 36 37 36 36 37 37 37 37 38 38 38 38 37 37 37 36 36 36 37 37 38 39 39 39 39 39 39 39 39 39
27 28 29 30 31 31 31 32 32 33 33 34 35 36 37 37 37 37 38 38 38 38 38 38 38 38 38 37 36 37 37 37 37 37 38 39 39 39 39 39 40 40 39
27 28 29 30 31 32 32 33 33 33 33 33 34 35 36 36 37 38 38 38 39 39 38 38 38 38 39 39 39 39 38 38 39 40 40 40 40 40 40 40 41 41 41
27 28 30 31 32 32 33 33 34 35 35 34 35 35 36 37 37 37 37 38 38 39 39 40 40 40 40 40 41 40 40 40 41 41 42 42 41 41 41 42 42 42 43
28 29 30 31 32 33 34 35 35 36 35 35 35 36 37 37 37 37 38 38 38 39 40 40 41 41 41 42 42 43 43 43 43 43 43 43 43 43 43 43 44 44 44
28 28 29 31 32 33 34 35 36 36 36 36 36 36 37 38 38 38 39 39 39 40 40 41 41 41 42 42 43 44 44 45 45 45 44 44 44 44 44 45 46 46 45
29 29 31 32 33 34 35 36 36 37 37 37 37 37 38 39 39 40 40 40 40 41 41 42 42 42 43 43 44 44 45 45 45 45 45 44 44 45 45 46 46 46 45
30 31 32 33 34 35 36 36 37 38 38 39 39 39 40 40 41 41 42 42 42 42 42 43 43 43 43 44 44 45 45 45 45 45 45 45 45 46 46 46 45 46 45
32 33 34 35 35 36 37 37 38 39 39 40 41 41 42 42 42 42 43 43 43 43 43 43 44 44 45 45 45 46 46 46 46 46 46 46 46 47 47 46 46 46 46
34 35 36 36 37 38 38 38 39 40 41 42 42 43 43 44 44 44 44 45 45 45 45 45 46 46 47 47 47 47 47 48 48 48 47 47 47 47 47 47 47 47 47
37 37 38 39 39 40 40 40 41 41 42 43 43 44 45 45 45 46 46 46 46 46 47 47 48 48 48 48 48 49 49 49 49 48 48 48 48 48 48 48 47 47 48
39 39 40 41 41 42 42 42 42 43 43 43 44 45 45 46 46 47 47 47 48 48 48 48 48 49 49 50 50 51 50 50 49 49 49 48 48 48 48 48 48 48 47
40 41 41 42 42 43 43 44 44 45 45 45 45 46 46 47 47 48 48 48 49 49 49 49 50 50 50 51 51 51 51 50 49 49 49 49 49 49 48 48 48 47 46
42 42 43 43 43 44 45 45 45 46 46 46 47 47 48 48 48 49 50 50 50 50 50 50 51 51 51 51 51 51 51 50 49 49 49 49 49 48 48 47 47 46 46
43 44 44 45 46 46 47 47 47 47 47 47 48 48 49 49 49 50 50 51 51 51 51 51 51 51 52 52 51 51 51 50 49 49 48 48 48 48 47 47 46 45 45
45 45 45 46 47 48 48 48 47 48 48 48 49 49 49 49 49 50 51 51 51 51 51 52 52 52 52 51 51 51 51 50 49 48 47 47 47 46 46 45 45 44 44
46 47 47 48 49 49 49 49 49 49 49 49 49 49 50 50 50 50 51 51 51 51 52 52 52 51 51 50 50 50 50 49 48 47 46 45 45 44 44 43 43 42 42
49 49 50 51 51 51 50 50 50 50 49 49 49 49 49 50 50 50 50 51 51 51 51 51 50 49 49 48 48 48 48 47 46 45 44 44 43 42 42 42 41 41 41
51 51 52 51 51 51 51 51 50 50 50 50 49 49 49 49 49 49 50 50 50 50 50 50 49 48 47 47 46 46 45 45 44 43 42 42 41 41 41 40 40 39 39
51 51 50 50 50 50 51 51 51 50 50 49 49 49 49 49 49 49 49 49 49 48 48 48 47 46 45 44 43 43 43 43 43 42 41 40 40 39 39 39 38 37 37
Wind_Direction
235 238 242 244 244 246 247 250 253 256 257 260 264 267 269 270 271 271 271 270 270 270 271 272 274 276 277 278 278 279 281 282 282 283 285 286 287 288 288 287 287 286 284
240 242 245 247 247 249 250 252 255 258 261 263 265 268 271 272 273 273 273 271 271 273 274 275 276 277 278 279 279 279 281 281 281 283 284 285 287 288 288 288 288 287 285
240 242 247 250 251 252 254 256 258 259 262 266 268 271 273 274 274 274 275 274 273 275 276 277 278 278 278 279 279 280 281 282 282 283 284 285 285 287 288 288 288 287 286
242 244 248 251 254 256 257 258 260 261 264 267 270 272 273 274 274 273 273 273 273 274 275 277 278 277 277 278 279 280 281 283 284 285 285 286 286 287 287 288 288 288 287
245 247 250 254 257 259 260 261 262 264 266 267 270 272 272 273 273 272 272 273 273 274 275 277 277 277 279 279 280 281 283 285 286 287 287 288 288 288 288 287 288 288 288
248 250 252 255 257 260 261 262 263 265 267 268 268 270 272 272 272 272 272 273 274 275 275 276 278 278 278 280 282 284 285 286 288 288 288 289 289 289 289 289 289 289 288
251 252 253 255 257 260 262 263 265 266 267 268 269 270 271 272 272 272 273 274 274 275 275 276 278 279 279 280 282 284 285 287 288 289 289 289 290 289 289 290 290 289 289
255 255 255 256 258 261 263 264 266 268 268 269 270 270 270 271 273 272 272 273 275 276 277 278 280 280 281 282 283 284 285 287 289 289 290 290 289 289 289 290 290 289 288
257 258 257 257 259 261 263 265 267 269 270 271 271 271 271 271 273 273 273 273 275 276 277 279 280 281 283 284 284 285 285 286 287 288 289 289 289 289 289 290 290 290 289
258 259 260 260 262 263 265 267 268 270 272 273 273 273 273 273 273 274 275 275 276 276 277 279 281 282 283 284 285 285 286 286 287 289 290 290 289 289 290 290 290 291 290
261 262 263 264 265 266 267 269 270 272 273 274 275 275 276 276 276 276 277 277 278 277 277 279 280 281 283 283 284 285 285 286 287 288 289 289 289 289 290 290 290 290 290
262 263 264 265 267 268 269 271 272 273 274 276 277 277 277 277 277 278 278 279 280 279 278 279 280 281 282 283 284 285 285 286 287 287 288 289 289 289 289 290 290 290 290
265 266 267 268 269 269 271 272 272 274 276 277 277 278 278 278 278 279 279 280 280 280 280 281 281 282 283 283 284 284 285 286 287 287 288 288 289 289 289 289 289 289 290
266 268 270 271 271 272 273 273 274 275 276 277 278 278 278 278 279 279 280 280 280 280 281 282 282 283 283 284 285 285 285 286 287 287 287 288 288 289 289 289 289 289 289
270 271 272 273 273 274 274 275 276 277 277 278 279 279 278 278 279 279 279 279 280 280 281 282 283 283 284 284 285 285 285 286 287 287 288 288 288 289 289 289 288 288 288
273 273 274 274 274 275 276 276 277 277 278 278 279 279 280 279 279 280 280 280 280 280 281 281 282 284 284 284 285 285 286 286 287 287 287 288 288 288 288 288 288 288 288
274 274 275 275 276 277 278 278 278 279 279 279 279 279 279 279 279 280 280 280 280 280 280 281 282 282 283 283 284 285 285 286 286 286 286 287 287 287 287 287 287 287 287
276 276 276 276 277 278 279 280 280 280 280 280 280 280 280 279 279 279 280 280 280 280 280 281 281 282 282 282 283 284 284 285 285 285 285 286 286 286 286 287 287 287 287
278 278 277 277 278 279 280 280 280 280 280 280 280 281 280 280 280 279 279 280 280 280 281 281 281 282 282 282 282 283 283 284 284 284 285 285 286 286 286 286 287 287 286
279 279 279 278 278 279 280 280 280 280 280 280 281 281 281 281 280 280 280 280 280 280 280 281 282 282 282 282 282 282 282 283 283 284 284 285 285 286 286 286 286 286 286
280 280 279 279 279 280 280 281 282 281 281 281 281 282 281 281 281 281 281 281 281 281 281 281 281 281 281 281 281 282 282 283 283 284 284 284 285 285 286 286 286 286 286
281 280 280 280 280 281 281 282 282 282 282 282 283 282 282 282 282 282 282 282 282 281 281 281 281 281 281 281 281 281 282 283 283 284 284 284 285 285 285 285 285 285 285
282 281 281 281 282 282 283 283 283 284 284 284 284 283 283 283 283 283 283 283 282 282 282 281 282 282 281 280 281 281 282 283 283 283 283 284 284 285 285 285 285 285 285
284 283 283 282 282 282 283 283 283 283 284 284 285 284 284 284 284 283 283 283 283 283 283 282 281 281 281 281 281 281 282 282 283 283 283 283 284 284 284 285 285 285 286
283 283 284 284 283 282 282 282 283 283 283 284 284 284 284 285 285 284 284 284 284 283 282 282 281 280 280 280 280 280 280 281 281 282 282 282 283 283 283 284 285 285 285
283 283 284 284 284 283 283 282 282 282 283 283 283 284 284 285 285 285 284 284 284 282 282 281 281 280 280 280 280 280 280 280 281 281 282 282 282 282 283 284 284 285 285
Height
5758 5761 5764 5767 5769 5771 5772 5774 5775 5777 5778 5779 5780 5781 5781 5781 5781 5781 5781 5781 5781 5781 5781 5781 5780 5780 5779 5778 5777 5776 5775 5774 5773 5772 5771 5769 5767 5765 5764 5762 5760 5758 5757
5755 5758 5760 5762 5764 5766 5767 5769 5770 5771 5772 5773 5774 5774 5774 5774 5774 5774 5773 5773 5773 5773 5773 5773 5772 5772 5771 5770 5769 5768 5767 5766 5764 5764 5762 5761 5760 5757 5755 5753 5751 5749 5747
5751 5754 5756 5757 5759 5760 5762 5763 5764 5765 5766 5767 5767 5767 5767 5767 5767 5767 5766 5766 5766 5766 5766 5765 5764 5764 5763 5762 5761 5759 5758 5757 5756 5754 5753 5752 5751 5749 5746 5744 5741 5739 5737
5747 5749 5751 5752 5754 5755 5756 5757 5758 5759 5759 5760 5760 5760 5760 5760 5760 5759 5759 5759 5758 5758 5758 5757 5757 5755 5754 5753 5752 5751 5750 5749 5747 5746 5744 5742 5740 5739 5738 5735 5732 5729 5727
5742 5744 5746 5747 5748 5749 5750 5751 5751 5752 5752 5753 5753 5753 5753 5752 5752 5752 5751 5751 5750 5750 5749 5749 5748 5747 5746 5745 5744 5742 5741 5740 5738 5736 5734 5732 5730 5728 5727 5726 5723 5720 5717
5737 5739 5740 5741 5742 5743 5743 5744 5745 5745 5745 5746 5746 5745 5745 5744 5744 5744 5743 5743 5742 5742 5741 5740 5739 5738 5737 5736 5734 5733 5732 5730 5729 5727 5725 5723 5721 5719 5716 5715 5713 5711 5708
5732 5733 5734 5734 5735 5736 5736 5737 5738 5738 5738 5738 5737 5737 5737 5736 5735 5735 5735 5734 5734 5733 5732 5731 5730 5729 5728 5727 5725 5724 5723 5721 5719 5717 5715 5713 5711 5709 5707 5705 5703 5701 5699
5726 5727 5727 5728 5728 5729 5729 5730 5730 5730 5730 5730 5729 5729 5728 5728 5727 5726 5726 5725 5725 5724 5724 5723 5722 5720 5719 5718 5716 5715 5713 5712 5710 5708 5706 5704 5702 5699 5697 5694 5692 5691 5689
5719 5720 5720 5721 5722 5722 5722 5722 5722 5722 5722 5722 5721 5720 5720 5719 5718 5717 5717 5716 5716 5715 5714 5714 5712 5711 5710 5708 5707 5706 5704 5702 5700 5698 5696 5694 5692 5689 5687 5684 5682 5680 5678
5713 5713 5714 5714 5714 5714 5714 5714 5714 5714 5713 5713 5713 5712 5711 5710 5709 5708 5707 5707 5706 5706 5705 5704 5703 5702 5700 5699 5697 5696 5694 5693 5691 5689 5686 5684 5682 5679 5677 5674 5671 5668 5665
5707 5707 5707 5707 5707 5707 5707 5706 5706 5705 5705 5704 5703 5703 5702 5701 5700 5699 5698 5698 5697 5696 5695 5694 5693 5692 5690 5689 5687 5686 5684 5682 5680 5678 5676 5674 5671 5669 5666 5663 5660 5657 5654
5700 5700 5700 5700 5700 5699 5699 5698 5697 5697 5696 5695 5694 5694 5692 5692 5691 5690 5689 5688 5687 5686 5685 5684 5683 5682 5680 5678 5677 5675 5673 5671 5669 5667 5665 5663 5660 5658 5655 5652 5649 5645 5642
5693 5693 5692 5692 5691 5691 5690 5689 5689 5688 5687 5686 5685 5684 5683 5682 5681 5680 5679 5678 5677 5676 5674 5673 5672 5671 5669 5667 5666 5664 5662 5660 5658 5656 5654 5651 5649 5646 5643 5640 5637 5634 5631
5686 5685 5684 5683 5683 5682 5681 5680 5679 5678 5677 5676 5675 5674 5672 5671 5670 5669 5668 5667 5666 5665 5663 5662 5661 5659 5658 5656 5654 5653 5651 5649 5646 5644 5641 5639 5637 5634 5631 5628 5625 5622 5619
5677 5677 5676 5675 5674 5673 5672 5671 5669 5668 5667 5666 5665 5663 5662 5661 5660 5658 5657 5656 5655 5653 5652 5651 5649 5647 5646 5644 5642 5641 5639 5637 5634 5632 5629 5627 5624 5621 5618 5615 5612 5609 5607
5669 5668 5667 5665 5664 5663 5662 5660 5659 5658 5656 5655 5653 5652 5651 5649 5648 5647 5645 5644 5643 5641 5640 5639 5637 5636 5634 5631 5630 5628 5626 5624 5622 5619 5616 5614 5611 5608 5605 5602 5599 5597 5594
5659 5658 5656 5655 5654 5653 5651 5650 5648 5647 5645 5644 5642 5640 5639 5637 5636 5634 5633 5632 5631 5629 5628 5626 5625 5623 5621 5619 5617 5615 5613 5611 5608 5606 5603 5601 5598 5595 5592 5589 5587 5584 5581
5649 5647 5646 5644 5643 5641 5640 5639 5637 5635 5634 5632 5630 5628 5627 5625 5623 5622 5620 5619 5618 5616 5615 5613 5611 5610 5608 5605 5603 5601 5599 5597 5594 5592 5589 5587 5585 5582 5579 5577 5574 5571 5568
5638 5636 5635 5633 5632 5630 5628 5627 5625 5623 5621 5619 5618 5615 5614 5612 5610 5609 5607 5605 5604 5602 5601 5599 5597 5596 5594 5591 5589 5587 5585 5583 5580 5578 5576 5573 5571 5568 5566 5563 5561 5558 5555
5626 5624 5623 5621 5620 5618 5616 5614 5612 5610 5608 5606 5604 5602 5600 5598 5596 5595 5593 5591 5590 5588 5587 5585 5583 5581 5579 5577 5574 5572 5571 5569 5566 5564 5562 5559 5557 5554 5551 5549 5547 5545 5542
5614 5612 5611 5609 5607 5605 5603 5602 5599 5597 5595 5593 5590 5588 5586 5584 5582 5580 5578 5576 5575 5573 5572 5570 5568 5566 5564 5561 5559 5557 5556 5554 5552 5550 5548 5545 5543 5540 5538 5536 5534 5531 5529
5602 5600 5598 5596 5594 5591 5589 5588 5585 5583 5581 5579 5576 5574 5572 5569 5567 5565 5564 5562 5560 5558 5556 5554 5553 5550 5548 5546 5544 5542 5541 5539 5538 5536 5534 5532 5529 5527 5525 5523 5520 5518 5516
5589 5587 5585 5583 5580 5577 5575 5573 5571 5569 5567 5564 5562 5560 5557 5555 5553 5551 5549 5547 5545 5543 5541 5539 5537 5535 5533 5531 5529 5528 5526 5524 5523 5522 5520 5518 5516 5514 5512 5510 5508 5505 5503
5575 5573 5570 5568 5566 5563 5561 5559 5557 5554 5552 5550 5547 5545 5543 5541 5538 5536 5534 5531 5529 5527 5525 5523 5522 5520 5518 5517 5515 5514 5512 5511 5509 5508 5507 5505 5503 5501 5499 5497 5495 5493 5492
5561 5558 5556 5554 5551 5549 5546 5544 5541 5539 5537 5535 5533 5530 5528 5526 5524 5522 5519 5517 5514 5512 5510 5508 5506 5505 5504 5502 5501 5499 5498 5497 5496 5495 5494 5492 5491 5489 5487 5486 5484 5482 5480
5546 5544 5541 5539 5537 5534 5531 5529 5526 5524 5522 5520 5518 5516 5513 5511 5509 5507 5505 5502 5500 5497 5495 5493 5492 5491 5490 5488 5487 5486 5485 5484 5483 5482 5481 5480 5478 5477 5476 5474 5473 5471 5469